www.pogodaiklimat.ru

Погода и климат >> Архив погоды >> Узбекистан >> Шурчи


ПОГОДА в Шурчи

  • Прогноз погоды в Шурчи
  • Монитор погоды в Шурчи

АРХИВ ПОГОДЫ в Шурчи

Время (UTC), дата Ветер
(напр.,м/с)
 
Видим.   Явления Облачность Т
(С)
Тd
(С)
f
(%)
Тe
(С)
Тes
(С)
Комфортность P
(гПа)
Po
(гПа)
Тmin
(С)
Tmax
(С)
R
(мм)
R24
(мм)
S
(см)
18 13.09 штиль 0 н/о ясно +17.0 +6.2 49 +17 +17 1015.9 964.0 +32.2
21 13.09 штиль 0 н/о ясно +15.2 +5.3 52 +15 +15 1016.2 963.9
00 14.09 штиль 0 н/о ясно +13.0 +5.6 61 +13 +13 1016.6 963.5
03 14.09 штиль 0 50 км 3/0
[]
+16.0 +5.9 51 +16 +19 1011.3 959.4
06 14.09 штиль 0 50 км 3/0
[Ci fib]
+27.6 +13.2 41 +29 +45 жарко 964.8 +14.4
09 14.09 штиль 0 50 км 3/0
[As trans]
+31.0 +7.7 23 +30 +43 жарко 1012.8 963.3
12 14.09 З 2 50 км 4/0
[As trans]
+30.6 +8.1 25 +30 +31 жарко 1011.1 961.7
15 14.09 штиль 0 н/о 3/0
[As trans]
+22.6 +5.5 33 +23 +23 комфорт 1013.9 963.0 +32.0
18 14.09 штиль 0 н/о 3/0
[As trans]
+20.0 +6.8 42 +21 +21 комфорт 1014.8 963.4 +32.0
21 14.09 штиль 0 н/о ясно +14.8 +4.3 49 +15 +15 1015.8 963.5
00 15.09 штиль 0 н/о ясно +12.8 +4.8 58 +13 +13 1017.9 965.1
03 15.09 штиль 0 50 км 4/0
[As trans]
+15.2 +4.3 48 +15 +17 1018.8 966.4
06 15.09 штиль 0 50 км 3/0
[Ci fib]
+24.4 0.0 20 +23 +38 комфорт 1018.7 967.8 +12.4
09 15.09 Ю 2 50 км 3/0
[As trans]
+29.2 +2.1 18 +27 +37 жарко 1016.3 966.4
12 15.09 ЮВ 2 50 км 3/0
[As trans]
+29.7 +2.9 18 +28 +29 жарко 1015.2 965.4
15 15.09 штиль 0 н/о 3/0
[As trans]
+21.4 +6.2 37 +22 +22 комфорт 1017.1 965.8 +30.8
18 15.09 штиль 0 н/о ясно +15.0 +4.8 50 +15 +15 1020.2 967.7 +30.8
21 15.09 штиль 0 н/о ясно +14.2 +4.0 50 +14 +14 1019.1 966.5
00 16.09 штиль 0 н/о ясно +12.2 +5.0 61 +12 +12 1019.8 966.8
03 16.09 штиль 0 50 км ясно +15.0 +4.8 50 +15 +18 1020.6 968.1
06 16.09 штиль 0 50 км 3/3 600 м
[Cu hum]
+26.0 +4.6 25 +25 +36 комфорт 1019.3 968.7 +11.6
09 16.09 штиль 0 50 км 3/3 600 м
[Cu hum]
+29.8 +6.1 22 +28 +40 жарко 1017.2 967.3
12 16.09 С 2 50 км 3/3 600 м
[Cu hum]
+28.4 +7.7 27 +28 +29 жарко 1015.5 965.6
15 16.09 штиль 0 н/о 3/0
[As trans]
+22.6 +7.4 38 +24 +24 комфорт 1016.9 965.9 +31.0
18 16.09 штиль 0 н/о ясно +14.0 +9.8 76 +14 +14 1019.7 967.0 +31.0
00 17.09 штиль 0 н/о ясно +11.4 +8.5 82 +11 +11 1020.6 967.5
03 17.09 штиль 0 50 км ясно +14.6 +4.5 51 +15 +17 1020.3 967.8
09 17.09 Ю 2 50 км ясно +30.4 +5.3 21 +29 +40 жарко 1015.7 965.9
12 17.09 штиль 0 50 км ясно +28.8 +4.1 21 +27 +30 жарко 1013.2 963.4
15 17.09 штиль 0 н/о 3/0
[As trans]
+22.8 +8.2 39 +24 +24 комфорт 1014.1 963.2 +31.4
18 17.09 штиль 0 н/о ясно +15.0 +5.6 53 +15 +15 1015.9 963.6 +31.4
21 17.09 штиль 0 н/о ясно +14.0 +4.8 54 +14 +14 1015.8 963.3
00 18.09 штиль 0 н/о ясно +12.0 +4.8 61 +12 +12 1014.9 962.2
03 18.09 СЗ 2 50 км ясно +15.2 +4.0 47 +15 +17 1015.8 963.5
06 18.09 штиль 0 50 км ?/? +27.4 +8.2 30 +27 +27 жарко 1013.3 963.3 +11.4
09 18.09 Ю 2 50 км ясно +33.6 +6.5 19 +32 +43 жарко 1010.6 961.7
12 18.09 штиль 0 50 км ясно +30.6 +8.1 25 +30 +32 жарко 1009.0 959.7
15 18.09 штиль 0 н/о 3/0
[As trans]
+23.8 +6.5 33 +24 +24 комфорт 1012.7 962.1 +34.4
18 18.09 штиль 0 н/о ясно +17.6 +5.1 44 +18 +18 1015.3 963.5 +34.4
21 18.09 штиль 0 н/о ясно +15.2 +5.8 53 +15 +15 1016.3 964.0
00 19.09 штиль 0 н/о ясно +13.6 +6.7 63 +13 +13 1016.8 964.3
03 19.09 штиль 0 50 км ясно +16.4 +5.6 49 +16 +19 1017.4 965.2
06 19.09 Ю 2 50 км ясно +29.6 +10.3 30 +30 +41 жарко 1015.4 965.6 +16.6
09 19.09 штиль 0 50 км ясно +35.4 +4.5 15 +33 +48 жарко 1013.0 964.2
12 19.09 штиль 0 50 км ясно +34.6 +3.4 14 +32 +34 жарко 1011.8 963.0
15 19.09 штиль 0 н/о ясно +22.8 +12.1 51 +25 +25 комфорт 1014.4 963.5 +36.0
18 19.09 штиль 0 н/о ясно +20.2 +11.8 58 +22 +22 комфорт 1014.7 963.5 +36.0
03 20.09 штиль 0 50 км ясно +18.6 +5.3 42 +19 +21 1015.7 964.1

 

Местоположение метеостанции Шурчи (Сухрандарьинская область, Узбекистан): широта 38.00 долгота 67.80 высота над уровнем моря 448 м.

В архиве по умолчанию представлена погода в Шурчи за последнюю неделю. Архивные данные за месяц целиком и за предыдущие месяцы, начиная с января 2011 года, Вы можете получить, выбрав интересующий диапазон дат из раскрывающегося списка и нажав кнопку "Ввод!".


*Определитесь, кто Вы:
робот инопланетянин человек

Внимание! Время в таблицах - всемирное. Для получения местного времени необходимо прибавить поправку, которая равна 5 ч.

Смотрите также архив погоды в соседних городах и на ближайших метеорологических станциях:

Погода в Денау (Сухрандарьинская область, Узбекистан) (31 км)
Погода в Байсуне (Сухрандарьинская область, Узбекистан) (57 км)
Погода в Ганжине (Таджикистан) (68 км)
Погода в Исанбай (Таджикистан) (75 км)
Погода в Ширабаде (Сухрандарьинская область, Узбекистан) (78 км)
Погода в Курган-Тюбе (Таджикистан) (88 км)
Погода в Акрабате (Узбекистан) (89 км)
Погода в Термезе (Сухрандарьинская область, Узбекистан) (98 км)
Погода в Минчукуре (Кашкадарьинская область, Узбекистан) (105 км)
Погода в Душанбе (Таджикистан) (105 км)

Пояснения к столбцам:

Ветер - указаны скорость ветра в м/с - средняя за 10 мин, порывы в срок и между сроками (в фигурных скобках) и направление, откуда дует ветер: С - северный, СВ - северо-восточный, В - восточный, ЮВ - юго-восточный, Ю - южный, ЮЗ - юго-западный, З - западный, СЗ - северо-западный.
Видимость - горизонтальная дальность видимости в метрах или километрах. При видимости от 1 до 10 км при отсутствии осадков обычно наблюдается дымка, при ухудшении видимости до 1 км и менее - туман. В сухую погоду видимость может ухудшаться дымом, пылью или мглою.
Явления - указаны атмосферные явления, наблюдавшиеся в срок или в последний час перед сроком; фигурными скобками обозначены явления, наблюдавшиеся между сроками (за 1-3 часа до срока); квадратными скобками обозначены град или гололедные отложения с указанием их диаметра в мм.
Облачность - указаны через наклонную черту общая и нижняя облачность в баллах и высота нижней границы облаков в метрах; квадратными скобками обозначены формы облаков: Ci - перистые, Cs - перисто-слоистые, Cc - перисто-кучевые, Ac - высококучевые, As - высокослоистые, Sc - слоисто-кучевые, Ns - слоисто-дождевые, Cu - кучевые, Cb - кучево-дождевые. Подробнее классификацию облаков см. в Атласе облаков (PDF).
T - Температура воздуха - температура, измеренная на высоте 2 м над землей.
Td - Температура точки росы - температура, при понижении до которой содержащийся в воздухе водяной пар достигнет насыщения.
f - Относительная влажность воздуха - влажноcть воздуха, измеренная на высоте 2 м над землей.
Te - Эффективная температура - температура, которую ощущает одетый по сезону человек в тени. Характеристика душности погоды. При расчете учитывается влияние влажности воздуха и скорости ветра на теплоощущения человека.
Tes - Эффективная температура на солнце - температура, которую ощущает человек, с поправкой на солнечный нагрев. Характеристика знойности погоды. Зависит от высоты солнца над горизонтом, облачности и скорости ветра. Ночью, в пасмурную погоду, а также при ветре 12 м/с и более поправка равна нулю.
P - Атмосферное давление - приведенное к уровню моря атмосферное давление.
Po - Атмосферное давление - измеренное на уровне метеостанции атмосферное давление.
Tmin - Минимальная температура - минимум температуры воздуха на высоте 2 м над землей.
Tmax - Максимальная температура - максимум температуры воздуха на высоте 2 м над землей.
R - Количество осадков - Количество выпавших осадков за период времени, мм. При наведении курсора мыши на число - период времени, за который выпало указанное количество осадков.
R24 - Количество осадков - Количество выпавших осадков за 24 часа, мм.
S - Снежный покров - Высота снежного покрова, см. При наведении курсора мыши на число - состояние снежного покрова и степень покрытия местности в баллах.